Location: ????????
(55.7667°N, 37.4833°E)
Time: 03:42:41
(UTC+00:00)

Cosmos 2333 - Pass Details

Date: 19 May 2025
Orbit: 830 x 863 km, 70.9° (Epoch: 15 June)

Event Time Altitude Azimuth Distance (km) Brightness Sun altitude
Rises 20:38:31 0° 324° (NW) 3,427 8.7 -13.6°
Reaches altitude 10° 20:41:01 10° 328° (NNW) 2,483 7.8 -13.7°
Maximum altitude 20:46:42 69° 51° (NE) 904 4.4 -13.8°
Enters shadow 20:51:46 13° 134° (SE) 2,249 6.0 -13.9°
